Regional Weather Roundup
Issued by NWS

Home | Current Version | Previous Version | Graphics & Text | Print | Product List | Glossary On
Versions: 1 2 3 4 5 6 7 8 9 10 11 12 13 14 15 16 17 18 19 20 21 22 23 24 25 26 27 28 29 30 31 32 33 34 35 36 37 38 39 40 41 42 43 44 45 46 47 48 49 50
000
ASUS43 KOAX 310710
RWRNE

WEATHER ROUNDUP FOR NEBRASKA
NATIONAL WEATHER SERVICE OMAHA NE
200 AM CDT WED AUG 31 2016

NOTES: SATELLITE DATA IS BEING USED TO AUGMENT CLOUD COVER ABOVE
       12000 FEET.
       "FAIR" INDICATES FEW OR NO CLOUDS BELOW 12,000 FEET WITH NO
       SIGNIFICANT WEATHER AND/OR OBSTRUCTIONS TO VISIBILITY.

  * THESE STATIONS DO NOT REPORT WEATHER SUCH AS RAIN...SNOW OR FOG.

NEZ001>004-019>022-054>056-310800-
NEBRASKA PANHANDLE

CITY           SKY/WX    TMP DP  RH WIND       PRES   REMARKS
SCOTTSBLUFF      N/A     60  56  86 E7        30.27F
ALLIANCE       CLEAR     56  55  97 S5        30.27S
CHADRON        CLEAR     64  55  72 CALM      30.23S
KIMBALL        CLEAR     56  56 100 CALM      30.32F
SIDNEY         PTCLDY    57  56  96 CALM      30.30S
$$

NEZ057>060-069>072-079>082-310800-
SOUTHWEST NEBRASKA

CITY           SKY/WX    TMP DP  RH WIND       PRES   REMARKS
NORTH PLATTE   PTCLDY    63  62  97 SE6       30.23F
IMPERIAL       CLOUDY    65  63  93 E3        30.25R
LEXINGTON      PTCLDY    65  64  94 CALM      30.22S FOG
MCCOOK         CLOUDY    68  66  93 E9        30.22S
OGALLALA       CLOUDY    64  62  94 CALM      30.26S
$$

NEZ005>010-023>029-035>040-094-310800-
NORTH CENTRAL NEBRASKA

CITY           SKY/WX    TMP DP  RH WIND       PRES   REMARKS
VALENTINE      CLEAR     65  60  84 CALM      30.23S
AINSWORTH      CLEAR     62  62  99 CALM      30.24S
BROKEN BOW     FOG       58  58 100 N3        30.22F VSB 1/2
O`NEILL        FOG       65  64  96 CALM      30.23R VSB 1/4
ORD            FOG       61  59  93 CALM      30.20S VSB 1/4
THEDFORD         N/A     60  59  97 CALM      30.26S FOG
$$

NEZ041-046>049-061>064-073>077-083>087-310800-
SOUTH CENTRAL NEBRASKA

CITY           SKY/WX    TMP DP  RH WIND       PRES   REMARKS
GRAND ISLAND   FOG       67  66  97 CALM      30.20S VSB 3/4
AURORA         CLOUDY    67  67 100 NE3       30.19F FOG
HASTINGS       CLOUDY    69  66  90 E3        30.20S
HEBRON         CLOUDY    69  68  97 CALM      30.17F
HOLDREGE       CLOUDY    67  65  95 CALM      30.21S FOG
KEARNEY *      CLOUDY    66  64  94 NE5       30.20S
YORK           CLOUDY    66  66 100 CALM      30.19S FOG
$$

NEZ011>018-030>034-042>045-310800-
NORTHEAST NEBRASKA

CITY           SKY/WX    TMP DP  RH WIND       PRES   REMARKS
NORFOLK        CLOUDY    64  63  96 CALM      30.19S FOG
ALBION         MOCLDY    64  62  93 CALM      30.20F FOG
BLAIR          CLOUDY    70  68  94 NE6       30.17F
FREMONT        CLOUDY    69  68  98 CALM      30.18S
TEKAMAH        CLOUDY    68  67  96 N5        30.17S
WAYNE          CLOUDY    65  64  99 CALM      30.20S FOG
$$

NEZ050>053-065>068-078-088>093-310800-
SOUTHEAST NEBRASKA

CITY           SKY/WX    TMP DP  RH WIND       PRES   REMARKS
LINCOLN        CLOUDY    71  69  93 CALM      30.18R
OMAHA EPPLEY   CLOUDY    71  68  90 N5        30.16S
BEATRICE       CLOUDY    70  69  98 CALM      30.16F FOG
FALLS CITY     LGT RAIN  72  70  93 N5        30.14S
NEBRASKA CITY  CLOUDY    71  71 100 CALM      30.16S
PLATTSMOUTH    MOCLDY    71  70  98 CALM      30.16F
$$

NEZ044-045-051>053-067-310800-
OMAHA AREA

CITY           SKY/WX    TMP DP  RH WIND       PRES   REMARKS
OMAHA EPPLEY   CLOUDY    71  68  90 N5        30.16S
BLAIR          CLOUDY    70  68  94 NE6       30.17F
FREMONT        CLOUDY    69  68  98 CALM      30.18S
MILLARD        CLOUDY   N/A N/A N/A CALM      30.16S
OFFUTT AFB     CLOUDY    72  72 100 N5        30.15F
PLATTSMOUTH    MOCLDY    71  70  98 CALM      30.16F
WAHOO          FAIR      69  67  95 N5        30.17S
$$



USA.gov is the U.S. government's official web portal to all federal, state and local government web resources and services.